Location: Tamazert
(32.6352°N, 5.2072°W)
Time: 11:20:21
(UTC+00:00)

Tiros 1 despin weight - Pass Details

Date: 07 October 2022
Orbit: 590 x 637 km, 48.2° (Epoch: 25 November)

Event Time Altitude Azimuth Distance (km) Brightness Sun altitude
Rises 17:54:04 0° 314° (NW) 2,860 ? 0.0°
Reaches altitude 10° 17:57:57 10° 347° (NNW) 1,969 ? -0.8°
Maximum altitude 17:59:32 12° 8° (N) 1,871 ? -1.2°
Drops below altitude 10° 18:01:07 10° 28° (NNE) 1,980 ? -1.5°
Enters shadow 18:04:56 - 61° (ENE) 2,861 ? -2.3°
Sets 18:05:03 0° 62° (ENE) 2,899 - -2.3°
